| time (UTC) | temp F | wind direction | speed MPH | gust MPH | rain 1hr in | rain 24hr in | rain mn in | humidity % | barometer mb |
| 20260505021549 | 64 | 33 | 6.0 | 14.0 | 0.00 | 0.00 | 0.00 | 35 | 1006.2 |
| 20260505020044 | 65 | 136 | 11.0 | 15.0 | 0.00 | 0.00 | 0.00 | 32 | 1005.4 |
| 20260505014538 | 67 | 188 | 4.0 | 11.0 | 0.00 | 0.00 | 0.00 | 31 | 1005.2 |
| 20260505013054 | 68 | 187 | 4.0 | 8.0 | 0.00 | 0.00 | 0.00 | 31 | 1005.1 |
| 20260505011547 | 69 | 184 | 4.0 | 10.0 | 0.00 | 0.00 | 0.00 | 30 | 1005.2 |
| 20260505010044 | 71 | 203 | 5.0 | 12.0 | 0.00 | 0.00 | 0.00 | 28 | 1005.2 |
| 20260505004544 | 73 | 215 | 6.0 | 11.0 | 0.00 | 0.00 | 0.00 | 23 | 1005.3 |
| 20260505003037 | 73 | 232 | 4.0 | 13.0 | 0.00 | 0.00 | 0.00 | 26 | 1005.5 |
| 20260505001537 | 73 | 261 | 5.0 | 13.0 | 0.00 | 0.00 | 0.00 | 23 | 1005.6 |
| 20260505000035 | 73 | 198 | 6.0 | 13.0 | 0.00 | 0.00 | 0.00 | 25 | 1005.7 |
| 20260504234542 | 68 | 243 | 4.0 | 24.0 | 0.00 | 0.00 | 0.00 | 28 | 1005.7 |
| 20260504233054 | 68 | 263 | 17.0 | 24.0 | 0.00 | 0.00 | 0.00 | 26 | 1005.5 |
| 20260504231539 | 73 | 283 | 9.0 | 15.0 | 0.00 | 0.00 | 0.00 | 26 | 1005.4 |
| 20260504230037 | 73 | 282 | 5.0 | 11.0 | 0.00 | 0.00 | 0.00 | 24 | 1005.4 |
| 20260504224535 | 74 | 308 | 8.0 | 14.0 | 0.00 | 0.00 | 0.00 | 23 | 1005.6 |
| 20260504223044 | 73 | 242 | 4.0 | 14.0 | 0.00 | 0.00 | 0.00 | 26 | 1005.7 |
| 20260504221536 | 71 | 257 | 8.0 | 16.0 | 0.00 | 0.00 | 0.00 | 27 | 1005.8 |
| 20260504220058 | 72 | 286 | 3.0 | 10.0 | 0.00 | 0.00 | 0.00 | 24 | 1006.0 |
| 20260504214539 | 73 | 256 | 5.0 | 13.0 | 0.00 | 0.00 | 0.00 | 24 | 1006.3 |
| 20260504213036 | 74 | 257 | 5.0 | 17.0 | 0.00 | 0.00 | 0.00 | 26 | 1006.8 |
| 20260504211535 | 68 | 283 | 9.0 | 16.0 | 0.00 | 0.00 | 0.00 | 30 | 1006.9 |
| 20260504210035 | 69 | 319 | 5.0 | 10.0 | 0.00 | 0.00 | 0.00 | 29 | 1007.2 |
| 20260504204556 | 71 | 355 | 4.0 | 10.0 | 0.00 | 0.00 | 0.00 | 25 | 1007.2 |
| 20260504203038 | 70 | 18 | 4.0 | 10.0 | 0.00 | 0.00 | 0.00 | 32 | 1007.3 |
| 20260504201537 | 71 | 342 | 5.0 | 17.0 | 0.00 | 0.00 | 0.00 | 26 | 1007.5 |
| 20260504200042 | 72 | 286 | 3.0 | 15.0 | 0.00 | 0.00 | 0.00 | 26 | 1007.4 |
| 20260504194540 | 73 | 319 | 8.0 | 15.0 | 0.00 | 0.00 | 0.00 | 26 | 1007.6 |
| 20260504193037 | 72 | 299 | 8.0 | 13.0 | 0.00 | 0.00 | 0.00 | 26 | 1008.0 |
| 20260504191547 | 71 | 264 | 6.0 | 13.0 | 0.00 | 0.00 | 0.00 | 28 | 1007.9 |
| 20260504190039 | 71 | 314 | 5.0 | 16.0 | 0.00 | 0.00 | 0.00 | 30 | 1008.2 |
| 20260504184537 | 71 | 250 | 7.0 | 14.0 | 0.00 | 0.00 | 0.00 | 29 | 1008.3 |
| 20260504183036 | 70 | 239 | 7.0 | 19.0 | 0.00 | 0.00 | 0.00 | 31 | 1008.8 |
| 20260504181543 | 70 | 242 | 6.0 | 14.0 | 0.00 | 0.00 | 0.00 | 32 | 1008.8 |
| 20260504180039 | 69 | 252 | 7.0 | 13.0 | 0.00 | 0.00 | 0.00 | 33 | 1009.0 |
| 20260504174538 | 68 | 250 | 8.0 | 17.0 | 0.00 | 0.00 | 0.00 | 31 | 1009.0 |
| 20260504173035 | 67 | 234 | 6.0 | 13.0 | 0.00 | 0.00 | 0.00 | 31 | 1009.1 |
| 20260504171535 | 66 | 284 | 3.0 | 9.0 | 0.00 | 0.00 | 0.00 | 36 | 1009.2 |
| 20260504081548 | 42 | 81 | 1.0 | 4.0 | 0.00 | 0.00 | 0.00 | 57 | 1010.1 |
| 20260504044535 | 52 | 107 | 3.0 | 6.0 | 0.00 | 0.00 | 0.00 | 44 | 1010.8 |
| 20260504043044 | 53 | 74 | 3.0 | 7.0 | 0.00 | 0.00 | 0.00 | 43 | 1010.7 |
| 20260504041540 | 54 | 108 | 7.0 | 10.0 | 0.00 | 0.00 | 0.00 | 44 | 1010.7 |
| 20260504040040 | 55 | 136 | 9.0 | 13.0 | 0.00 | 0.00 | 0.00 | 43 | 1010.7 |
| 20260504034538 | 55 | 119 | 8.0 | 12.0 | 0.00 | 0.00 | 0.00 | 41 | 1010.7 |
| 20260504033036 | 57 | 117 | 8.0 | 11.0 | 0.00 | 0.00 | 0.00 | 40 | 1010.6 |
| 20260504031535 | 58 | 142 | 6.0 | 9.0 | 0.00 | 0.00 | 0.00 | 37 | 1010.5 |
| 20260504030035 | 61 | 140 | 5.0 | 9.0 | 0.00 | 0.00 | 0.00 | 34 | 1010.5 |
| 20260504024535 | 62 | 144 | 6.0 | 10.0 | 0.00 | 0.00 | 0.00 | 31 | 1010.4 |
| 20260504023039 | 64 | 86 | 1.0 | 5.0 | 0.00 | 0.00 | 0.00 | 34 | 1010.2 |